CDT,Max TemperatureF,Mean TemperatureF,Min TemperatureF,Max Dew PointF,MeanDew PointF,Min DewpointF,Max Humidity, Mean Humidity, Min Humidity, Max Sea Level PressureIn, Mean Sea Level PressureIn, Min Sea Level PressureIn, Max VisibilityMiles, Mean VisibilityMiles, Min VisibilityMiles, Max Wind SpeedMPH, Mean Wind SpeedMPH, Max Gust SpeedMPH,PrecipitationIn, CloudCover, Events, WindDirDegrees
2013-9-1,81,72,61,68,59,51,89,65,36,30.00,29.89,29.76,10,10,7,17,8,23,0.15,1,Rain,342
2013-9-2,77,65,53,56,51,44,91,66,32,30.09,30.04,30.00,10,10,10,12,6,17,0.00,0,,347
2013-9-3,81,64,46,60,52,44,93,68,32,30.14,30.08,30.03,10,8,0,6,2,,0.00,1,Fog,176
2013-9-4,88,72,57,65,58,54,90,66,31,30.17,30.12,30.05,10,10,10,9,3,,0.00,0,,230
2013-9-5,88,77,66,65,63,60,89,68,39,30.21,30.16,30.13,10,10,10,7,3,,0.00,1,,223
2013-9-6,90,76,62,64,59,52,89,60,27,30.13,30.05,29.94,10,10,7,15,6,21,0.00,0,,174
2013-9-7,89,78,68,68,64,60,88,65,44,29.96,29.91,29.87,10,10,7,14,6,20,0.00,0,Rain,238
2013-9-8,86,77,68,70,68,65,91,76,56,29.96,29.90,29.84,10,7,2,13,6,17,0.00,2,,69
2013-9-9,97,81,65,68,61,51,92,58,22,29.87,29.82,29.79,10,8,2,20,7,29,0.00,0,,196
2013-9-10,93,78,64,68,60,58,82,56,31,30.01,29.94,29.87,10,10,10,17,8,28,0.06,2,Rain,222
2013-9-11,86,76,66,68,63,54,89,68,34,30.11,30.08,30.01,10,10,10,8,3,,0.03,4,Rain,288
2013-9-12,78,67,56,60,46,35,83,52,21,30.22,30.17,30.09,10,10,10,17,8,30,0.00,0,,345
2013-9-13,73,59,45,47,44,39,88,60,29,30.26,30.19,30.11,10,10,7,7,4,,0.00,0,,72
2013-9-14,77,60,43,49,41,34,89,52,21,30.13,30.03,29.90,10,10,10,14,6,21,0.00,1,Rain,166
2013-9-15,71,66,58,58,52,47,73,61,49,30.25,30.02,29.85,10,10,10,18,9,24,0.00,7,,353
2013-9-16,68,59,50,53,49,47,90,72,47,30.36,30.29,30.24,10,10,10,15,6,18,0.00,4,,91
2013-9-17,66,60,54,62,56,50,92,88,76,30.26,30.11,29.97,10,6,2,12,7,17,0.63,8,Rain,137
2013-9-18,90,77,64,67,64,60,91,68,36,29.97,29.84,29.74,10,8,2,20,9,26,0.20,4,Rain,174
2013-9-19,81,72,63,69,64,53,91,77,54,29.92,29.80,29.74,10,9,2,18,8,29,0.91,4,Rain,211
2013-9-20,69,59,48,52,47,42,85,64,38,30.02,29.97,29.92,10,10,10,17,9,26,0.00,3,,307
2013-9-21,72,56,41,48,42,35,93,65,26,30.04,29.98,29.90,10,10,10,8,4,,0.00,0,,270
2013-9-22,79,63,47,53,48,44,89,63,31,29.97,29.92,29.86,10,10,10,15,7,21,0.00,0,,155
2013-9-23,77,63,49,50,47,44,87,60,31,29.95,29.89,29.82,10,10,10,20,9,26,0.00,0,,144
2013-9-24,73,64,55,55,52,49,82,68,50,29.92,29.87,29.83,10,10,10,10,7,,0.00,5,Rain,84
2013-9-25,79,64,49,57,52,46,91,69,40,29.96,29.89,29.83,10,9,3,14,4,17,0.00,0,,115
2013-9-26,84,70,57,60,57,53,92,66,34,29.92,29.88,29.84,10,8,2,20,8,26,0.00,0,,141
2013-9-27,87,76,65,60,58,53,82,58,33,29.95,29.90,29.85,10,10,10,22,11,30,0.00,0,,156
2013-9-28,70,58,46,62,53,43,89,75,46,30.05,29.89,29.76,10,9,2,20,11,25,0.08,4,Rain,239
2013-9-29,77,59,41,48,40,33,93,60,20,30.06,30.00,29.92,10,10,10,15,6,22,0.00,0,,189
2013-9-30,79,62,46,51,46,41,89,60,25,29.93,29.82,29.73,10,10,10,21,8,28,0.00,0,,177